| time (UTC) | temp F | wind direction | speed MPH | gust MPH | rain 1hr in | rain 24hr in | rain mn in | humidity % | barometer mb |
| 20260503002358 | 56 | 248 | 0.0 | 0.0 | 0.00 | 0.01 | 0.70 | ||
| 20260503001856 | 56 | 248 | 0.0 | 0.0 | 0.00 | 0.01 | 0.70 | ||
| 20260503001358 | 56 | 248 | 0.0 | 0.0 | 0.00 | 0.01 | 0.70 | ||
| 20260503000856 | 56 | 248 | 0.0 | 0.0 | 0.00 | 0.01 | 0.70 | ||
| 20260503000357 | 56 | 248 | 0.0 | 0.0 | 0.01 | 0.01 | 0.70 | ||
| 20260502235855 | 56 | 248 | 0.0 | 0.0 | 0.01 | 0.01 | 0.70 | ||
| 20260502235357 | 57 | 128 | 0.0 | 0.0 | 0.01 | 0.01 | 0.70 | ||
| 20260502234356 | 56 | 128 | 0.0 | 0.0 | 0.01 | 0.01 | 0.70 | ||
| 20260502233854 | 57 | 128 | 0.0 | 0.0 | 0.01 | 0.01 | 0.70 | ||
| 20260502233355 | 56 | 128 | 0.0 | 0.0 | 0.01 | 0.01 | 0.70 | ||
| 20260502232854 | 56 | 128 | 1.0 | 0.0 | 0.01 | 0.01 | 0.70 | ||
| 20260502232355 | 56 | 115 | 0.0 | 0.0 | 0.01 | 0.01 | 0.70 | ||
| 20260502231853 | 56 | 115 | 0.0 | 0.0 | 0.01 | 0.01 | 0.70 | ||
| 20260502231354 | 56 | 115 | 0.0 | 0.0 | 0.01 | 0.01 | 0.70 | ||
| 20260502230853 | 57 | 115 | 0.0 | 0.0 | 0.01 | 0.01 | 0.70 | ||
| 20260502230354 | 57 | 115 | 0.0 | 0.0 | 0.00 | 0.01 | 0.70 | ||
| 20260502225852 | 57 | 115 | 0.0 | 0.0 | 0.00 | 0.01 | 0.70 | ||
| 20260502225354 | 57 | 115 | 0.0 | 0.0 | 0.00 | 0.01 | 0.70 | ||
| 20260502224852 | 57 | 115 | 0.0 | 0.0 | 0.00 | 0.01 | 0.70 | ||
| 20260502224353 | 57 | 115 | 0.0 | 0.0 | 0.00 | 0.01 | 0.70 | ||
| 20260502223353 | 57 | 103 | 0.0 | 0.0 | 0.00 | 0.01 | 0.70 | ||
| 20260502222851 | 57 | 103 | 0.0 | 0.0 | 0.00 | 0.01 | 0.70 | ||
| 20260502222352 | 58 | 141 | 0.0 | 0.0 | 0.00 | 0.01 | 0.70 | ||
| 20260502221851 | 57 | 141 | 0.0 | 0.0 | 0.00 | 0.01 | 0.70 | ||
| 20260502221352 | 57 | 141 | 0.0 | 0.0 | 0.00 | 0.01 | 0.69 | ||
| 20260502220850 | 57 | 141 | 0.0 | 0.0 | 0.00 | 0.01 | 0.69 | ||
| 20260502220351 | 57 | 114 | 0.0 | 0.0 | 0.03 | 0.01 | 0.69 | ||
| 20260502215850 | 58 | 114 | 0.0 | 0.0 | 0.03 | 0.01 | 0.69 | ||
| 20260502215351 | 57 | 114 | 0.0 | 0.0 | 0.03 | 0.01 | 0.69 | ||
| 20260502214849 | 57 | 114 | 0.0 | 0.0 | 0.03 | 0.01 | 0.69 | ||
| 20260502214350 | 57 | 134 | 0.0 | 0.0 | 0.03 | 0.01 | 0.69 | ||
| 20260502213847 | 57 | 103 | 0.0 | 0.0 | 0.03 | 0.01 | 0.69 | ||
| 20260502213348 | 57 | 120 | 0.0 | 0.0 | 0.03 | 0.01 | 0.69 | ||
| 20260502212846 | 58 | 84 | 0.0 | 0.0 | 0.03 | 0.01 | 0.69 | ||
| 20260502212347 | 57 | 100 | 0.0 | 0.0 | 0.03 | 0.01 | 0.69 | ||
| 20260502211846 | 57 | 121 | 1.0 | 0.0 | 0.03 | 0.01 | 0.69 | ||
| 20260502211347 | 58 | 62 | 0.0 | 0.0 | 0.03 | 0.01 | 0.69 | ||
| 20260502210845 | 58 | 62 | 0.0 | 0.0 | 0.03 | 0.01 | 0.69 | ||
| 20260502210347 | 58 | 62 | 0.0 | 0.0 | 0.01 | 0.01 | 0.69 | ||
| 20260502205845 | 57 | 62 | 0.0 | 0.0 | 0.01 | 0.01 | 0.69 | ||
| 20260502205346 | 57 | 98 | 2.0 | 4.0 | 0.01 | 0.01 | 0.68 | ||
| 20260502204845 | 58 | 52 | 0.0 | 0.0 | 0.01 | 0.01 | 0.68 | ||
| 20260502204346 | 57 | 62 | 0.0 | 0.0 | 0.01 | 0.01 | 0.68 | ||
| 20260502203844 | 58 | 145 | 0.0 | 0.0 | 0.01 | 0.01 | 0.68 | ||
| 20260502203345 | 57 | 145 | 0.0 | 0.0 | 0.01 | 0.01 | 0.68 | ||
| 20260502202844 | 58 | 69 | 0.0 | 0.0 | 0.01 | 0.01 | 0.68 | ||
| 20260502202345 | 57 | 77 | 0.0 | 0.0 | 0.01 | 0.01 | 0.68 | ||
| 20260502201842 | 57 | 77 | 0.0 | 0.0 | 0.01 | 0.01 | 0.67 | ||
| 20260502200842 | 58 | 77 | 0.0 | 0.0 | 0.01 | 0.01 | 0.66 | ||
| 20260502200343 | 58 | 77 | 0.0 | 0.0 | 0.00 | 0.01 | 0.66 | ||
| 20260502195342 | 57 | 94 | 0.0 | 0.0 | 0.00 | 0.01 | 0.66 | ||
| 20260502194841 | 57 | 94 | 0.0 | 0.0 | 0.00 | 0.01 | 0.66 | ||
| 20260502194342 | 58 | 90 | 0.0 | 0.0 | 0.00 | 0.01 | 0.66 | ||
| 20260502193840 | 58 | 63 | 0.0 | 0.0 | 0.00 | 0.01 | 0.66 | ||
| 20260502193342 | 58 | 84 | 0.0 | 0.0 | 0.00 | 0.01 | 0.66 | ||
| 20260502192840 | 58 | 84 | 2.0 | 1.0 | 0.00 | 0.01 | 0.65 | ||
| 20260502192341 | 58 | 108 | 3.0 | 4.0 | 0.00 | 0.01 | 0.65 | ||
| 20260502191839 | 58 | 72 | 0.0 | 0.0 | 0.00 | 0.01 | 0.65 | ||
| 20260502191341 | 58 | 108 | 3.0 | 4.0 | 0.00 | 0.01 | 0.65 | ||
| 20260502190839 | 58 | 60 | 0.0 | 0.0 | 0.00 | 0.01 | 0.65 | ||
| 20260502190340 | 58 | 82 | 0.0 | 0.0 | 0.02 | 0.01 | 0.65 | ||
| 20260502185838 | 58 | 72 | 0.0 | 0.0 | 0.02 | 0.01 | 0.65 | ||
| 20260502185340 | 58 | 44 | 1.0 | 0.0 | 0.02 | 0.01 | 0.65 | ||
| 20260502184838 | 58 | 65 | 2.0 | 0.0 | 0.02 | 0.01 | 0.65 | ||
| 20260502184339 | 58 | 46 | 0.0 | 0.0 | 0.02 | 0.01 | 0.65 | ||
| 20260502183837 | 58 | 82 | 2.0 | 0.0 | 0.02 | 0.01 | 0.65 | ||
| 20260502183338 | 58 | 68 | 1.0 | 0.0 | 0.02 | 0.01 | 0.65 | ||
| 20260502182836 | 59 | 63 | 0.0 | 0.0 | 0.02 | 0.01 | 0.65 | ||
| 20260502182337 | 58 | 63 | 1.0 | 0.0 | 0.02 | 0.01 | 0.65 | ||
| 20260502181835 | 59 | 77 | 5.0 | 2.0 | 0.02 | 0.01 | 0.65 | ||
| 20260502181337 | 59 | 107 | 2.0 | 5.0 | 0.02 | 0.01 | 0.65 | ||
| 20260502180835 | 58 | 52 | 3.0 | 3.0 | 0.02 | 0.01 | 0.65 | ||
| 20260502180336 | 59 | 103 | 1.0 | 4.0 | 0.04 | 0.01 | 0.65 | ||
| 20260502170324 | 60 | 98 | 3.0 | 4.0 | 0.12 | 0.01 | 0.63 | ||
| 20260502164323 | 60 | 89 | 2.0 | 3.0 | 0.12 | 0.01 | 0.62 | ||
| 20260502163820 | 59 | 104 | 3.0 | 4.0 | 0.12 | 0.01 | 0.62 | ||
| 20260502163318 | 60 | 59 | 2.0 | 0.0 | 0.12 | 0.01 | 0.62 | ||
| 20260502162815 | 60 | 56 | 3.0 | 4.0 | 0.12 | 0.01 | 0.61 | ||
| 20260502162316 | 60 | 77 | 3.0 | 3.0 | 0.12 | 0.01 | 0.60 | ||
| 20260502161812 | 61 | 91 | 2.0 | 4.0 | 0.12 | 0.01 | 0.60 | ||
| 20260502160811 | 60 | 90 | 0.0 | 0.0 | 0.12 | 0.01 | 0.59 | ||
| 20260502160312 | 60 | 90 | 0.0 | 0.0 | 0.14 | 0.01 | 0.58 | ||
| 20260502152309 | 59 | 136 | 0.0 | 0.0 | 0.14 | 0.01 | 0.50 | ||
| 20260502151808 | 59 | 136 | 0.0 | 0.0 | 0.14 | 0.01 | 0.49 | ||
| 20260502151308 | 59 | 136 | 0.0 | 0.0 | 0.14 | 0.01 | 0.48 | ||
| 20260502150807 | 59 | 136 | 0.0 | 0.0 | 0.14 | 0.01 | 0.47 | ||
| 20260502150308 | 59 | 65 | 0.0 | 0.0 | 0.15 | 0.01 | 0.44 | ||
| 20260502130252 | 60 | 68 | 0.0 | 0.0 | 0.00 | 0.01 | 0.16 | ||
| 20260502123750 | 59 | 68 | 0.0 | 0.0 | 0.00 | 0.01 | 0.16 | ||
| 20260502123251 | 59 | 68 | 0.0 | 0.0 | 0.00 | 0.01 | 0.16 | ||
| 20260502122749 | 60 | 80 | 1.0 | 0.0 | 0.00 | 0.01 | 0.16 | ||
| 20260502122250 | 59 | 115 | 3.0 | 4.0 | 0.00 | 0.01 | 0.16 | ||
| 20260502121749 | 59 | 107 | 3.0 | 2.0 | 0.00 | 0.01 | 0.16 | ||
| 20260502121250 | 60 | 58 | 2.0 | 0.0 | 0.00 | 0.01 | 0.16 | ||
| 20260502120748 | 60 | 65 | 1.0 | 3.0 | 0.00 | 0.01 | 0.16 | ||
| 20260502120249 | 59 | 65 | 0.0 | 0.0 | 0.07 | 0.01 | 0.16 | ||
| 20260502115748 | 59 | 80 | 0.0 | 0.0 | 0.07 | 0.01 | 0.16 | ||
| 20260502115249 | 59 | 107 | 4.0 | 1.0 | 0.07 | 0.01 | 0.16 | ||
| 20260502114747 | 60 | 79 | 0.0 | 0.0 | 0.07 | 0.01 | 0.16 | ||
| 20260502114248 | 59 | 79 | 0.0 | 0.0 | 0.07 | 0.01 | 0.16 | ||
| 20260502113747 | 60 | 79 | 0.0 | 0.0 | 0.07 | 0.01 | 0.16 | ||
| 20260502113248 | 59 | 79 | 1.0 | 0.0 | 0.07 | 0.01 | 0.16 | ||
| 20260502112744 | 60 | 166 | 0.0 | 0.0 | 0.07 | 0.01 | 0.16 | ||
| 20260502112245 | 59 | 48 | 0.0 | 0.0 | 0.07 | 0.01 | 0.16 | ||
| 20260502111743 | 59 | 48 | 0.0 | 0.0 | 0.07 | 0.01 | 0.16 | ||
| 20260502111245 | 59 | 177 | 0.0 | 0.0 | 0.07 | 0.01 | 0.16 | ||
| 20260502110743 | 59 | 177 | 0.0 | 0.0 | 0.03 | 0.01 | 0.16 | ||
| 20260502110244 | 59 | 177 | 0.0 | 0.0 | 0.03 | 0.01 | 0.16 | ||
| 20260502105742 | 60 | 46 | 2.0 | 0.0 | 0.03 | 0.01 | 0.15 | ||
| 20260502105243 | 60 | 87 | 0.0 | 0.0 | 0.03 | 0.01 | 0.15 | ||
| 20260502104742 | 59 | 143 | 2.0 | 2.0 | 0.03 | 0.01 | 0.14 | ||
| 20260502104243 | 59 | 62 | 0.0 | 0.0 | 0.03 | 0.01 | 0.13 | ||
| 20260502103741 | 60 | 62 | 0.0 | 0.0 | 0.03 | 0.01 | 0.12 | ||
| 20260502102741 | 60 | 62 | 0.0 | 0.0 | 0.03 | 0.01 | 0.11 | ||
| 20260502102242 | 59 | 62 | 0.0 | 0.0 | 0.03 | 0.01 | 0.10 | ||
| 20260502101740 | 59 | 62 | 0.0 | 0.0 | 0.03 | 0.01 | 0.10 | ||
| 20260502101241 | 59 | 62 | 0.0 | 0.0 | 0.03 | 0.01 | 0.10 | ||
| 20260502100739 | 60 | 62 | 0.0 | 0.0 | 0.03 | 0.01 | 0.09 | ||
| 20260502100241 | 59 | 62 | 0.0 | 0.0 | 0.03 | 0.01 | 0.09 | ||
| 20260502091237 | 60 | 62 | 0.0 | 0.0 | 0.03 | 0.01 | 0.07 | ||
| 20260502090735 | 60 | 62 | 0.0 | 0.0 | 0.03 | 0.01 | 0.06 | ||
| 20260502090236 | 60 | 62 | 0.0 | 0.0 | 0.03 | 0.01 | 0.06 | ||
| 20260502071230 | 61 | 62 | 0.0 | 0.0 | 0.00 | 0.01 | 0.00 | ||
| 20260502070728 | 61 | 62 | 0.0 | 0.0 | 0.00 | 0.01 | 0.00 | ||
| 20260502070228 | 62 | 62 | 0.0 | 0.0 | 0.00 | 0.01 | 0.00 | ||
| 20260502065727 | 61 | 62 | 0.0 | 0.0 | 0.00 | 0.01 | 0.00 | ||
| 20260502065228 | 62 | 62 | 0.0 | 0.0 | 0.00 | 0.01 | 0.00 | ||
| 20260502064726 | 61 | 62 | 0.0 | 0.0 | 0.00 | 0.01 | 0.00 | ||
| 20260502064228 | 62 | 62 | 0.0 | 0.0 | 0.00 | 0.01 | 0.00 | ||
| 20260502063726 | 62 | 62 | 0.0 | 0.0 | 0.00 | 0.01 | 0.00 | ||
| 20260502063227 | 62 | 62 | 0.0 | 0.0 | 0.00 | 0.01 | 0.00 | ||
| 20260502062725 | 62 | 62 | 0.0 | 0.0 | 0.00 | 0.01 | 0.00 | ||
| 20260502062227 | 62 | 80 | 0.0 | 0.0 | 0.00 | 0.01 | 0.00 | ||
| 20260502061725 | 62 | 80 | 0.0 | 0.0 | 0.00 | 0.01 | 0.00 | ||
| 20260502061226 | 62 | 80 | 0.0 | 0.0 | 0.00 | 0.01 | 0.00 | ||
| 20260502060725 | 62 | 80 | 0.0 | 0.0 | 0.00 | 0.01 | 0.00 | ||
| 20260502060226 | 62 | 80 | 0.0 | 0.0 | 0.00 | 0.01 | 0.00 | ||
| 20260502055724 | 62 | 80 | 0.0 | 0.0 | 0.00 | 0.01 | 0.00 | ||
| 20260502055225 | 62 | 135 | 3.0 | 3.0 | 0.00 | 0.01 | 0.00 | ||
| 20260502054724 | 61 | 73 | 3.0 | 3.0 | 0.00 | 0.01 | 0.00 | ||
| 20260502053723 | 62 | 44 | 0.0 | 0.0 | 0.00 | 0.01 | 0.00 | ||
| 20260502053224 | 62 | 44 | 0.0 | 0.0 | 0.00 | 0.01 | 0.00 | ||
| 20260502052723 | 62 | 44 | 0.0 | 0.0 | 0.00 | 0.01 | 0.00 | ||
| 20260502052224 | 62 | 44 | 0.0 | 0.0 | 0.00 | 0.01 | 0.00 | ||
| 20260502051224 | 62 | 44 | 0.0 | 0.0 | 0.00 | 0.01 | 0.00 | ||
| 20260502050722 | 62 | 44 | 0.0 | 0.0 | 0.00 | 0.01 | 0.00 | ||
| 20260502050223 | 62 | 44 | 0.0 | 0.0 | 0.00 | 0.01 | 0.00 | ||
| 20260502045721 | 62 | 44 | 0.0 | 0.0 | 0.00 | 0.01 | 0.00 | ||
| 20260502045222 | 63 | 44 | 0.0 | 0.0 | 0.00 | 0.01 | 0.00 | ||
| 20260502044721 | 62 | 44 | 0.0 | 0.0 | 0.00 | 0.01 | 0.00 | ||
| 20260502044222 | 62 | 44 | 2.0 | 1.0 | 0.00 | 0.01 | 0.00 | ||
| 20260502043720 | 62 | 70 | 2.0 | 2.0 | 0.00 | 0.01 | 0.00 | ||
| 20260502042720 | 62 | 62 | 0.0 | 0.0 | 0.00 | 0.01 | 0.00 | ||
| 20260502042221 | 62 | 49 | 0.0 | 0.0 | 0.00 | 0.01 | 0.00 | ||
| 20260502041720 | 62 | 49 | 0.0 | 0.0 | 0.00 | 0.01 | 0.00 | ||
| 20260502041221 | 62 | 69 | 2.0 | 2.0 | 0.00 | 0.01 | 0.00 | ||
| 20260502040220 | 62 | 70 | 2.0 | 2.0 | 0.01 | 0.24 | 0.01 | ||
| 20260502035719 | 63 | 72 | 2.0 | 2.0 | 0.01 | 0.24 | 0.01 | ||
| 20260502035220 | 62 | 72 | 2.0 | 3.0 | 0.01 | 0.24 | 0.01 | ||
| 20260502034718 | 62 | 56 | 0.0 | 0.0 | 0.01 | 0.24 | 0.01 | ||
| 20260502034220 | 62 | 56 | 0.0 | 0.0 | 0.01 | 0.24 | 0.01 | ||
| 20260502033718 | 62 | 56 | 0.0 | 0.0 | 0.01 | 0.24 | 0.01 | ||
| 20260502033219 | 62 | 56 | 0.0 | 0.0 | 0.01 | 0.24 | 0.01 | ||
| 20260502032718 | 62 | 56 | 0.0 | 0.0 | 0.01 | 0.24 | 0.01 | ||
| 20260502032219 | 62 | 56 | 0.0 | 0.0 | 0.01 | 0.24 | 0.01 | ||
| 20260502031718 | 62 | 56 | 0.0 | 0.0 | 0.01 | 0.24 | 0.01 | ||
| 20260502031219 | 62 | 56 | 0.0 | 0.0 | 0.01 | 0.24 | 0.01 | ||
| 20260502030717 | 63 | 56 | 0.0 | 0.0 | 0.00 | 0.24 | 0.01 | ||
| 20260502030218 | 62 | 56 | 0.0 | 0.0 | 0.00 | 0.24 | 0.01 | ||
| 20260502025717 | 62 | 56 | 0.0 | 0.0 | 0.00 | 0.24 | 0.01 | ||
| 20260502025218 | 62 | 56 | 0.0 | 0.0 | 0.00 | 0.24 | 0.01 | ||
| 20260502024716 | 62 | 56 | 0.0 | 0.0 | 0.00 | 0.24 | 0.01 | ||
| 20260502024218 | 63 | 56 | 0.0 | 0.0 | 0.00 | 0.24 | 0.01 | ||
| 20260502023716 | 63 | 56 | 0.0 | 0.0 | 0.00 | 0.24 | 0.00 | ||
| 20260502023217 | 62 | 56 | 0.0 | 0.0 | 0.00 | 0.24 | 0.00 | ||
| 20260502022715 | 63 | 60 | 2.0 | 1.0 | 0.00 | 0.24 | 0.00 | ||
| 20260502022217 | 63 | 75 | 1.0 | 1.0 | 0.00 | 0.24 | 0.00 | ||
| 20260502021715 | 63 | 53 | 0.0 | 0.0 | 0.00 | 0.24 | 0.00 | ||
| 20260502021216 | 63 | 53 | 1.0 | 0.0 | 0.00 | 0.24 | 0.00 | ||
| 20260502020715 | 63 | 68 | 1.0 | 1.0 | 0.00 | 0.24 | 0.00 | ||
| 20260502020215 | 63 | 68 | 2.0 | 2.0 | 0.00 | 0.24 | 0.00 | ||
| 20260502015215 | 63 | 73 | 1.0 | 2.0 | 0.00 | 0.24 | 0.00 | ||
| 20260502014713 | 63 | 69 | 1.0 | 1.0 | 0.00 | 0.24 | 0.00 | ||
| 20260502014214 | 63 | 70 | 1.0 | 1.0 | 0.00 | 0.24 | 0.00 | ||
| 20260502013713 | 63 | 66 | 2.0 | 2.0 | 0.00 | 0.24 | 0.00 | ||
| 20260502013214 | 64 | 45 | 1.0 | 0.0 | 0.00 | 0.24 | 0.00 | ||
| 20260502012713 | 63 | 66 | 1.0 | 1.0 | 0.00 | 0.24 | 0.00 | ||
| 20260502012213 | 63 | 63 | 1.0 | 1.0 | 0.00 | 0.24 | 0.00 | ||
| 20260502011712 | 63 | 72 | 2.0 | 2.0 | 0.00 | 0.24 | 0.00 | ||
| 20260502010711 | 63 | 65 | 2.0 | 1.0 | 0.00 | 0.24 | 0.00 | ||
| 20260502010213 | 63 | 62 | 1.0 | 1.0 | 0.00 | 0.24 | 0.00 | ||
| 20260502005710 | 63 | 70 | 0.0 | 1.0 | 0.00 | 0.24 | 0.00 | ||
| 20260502005211 | 63 | 69 | 2.0 | 2.0 | 0.00 | 0.24 | 0.00 | ||
| 20260502004710 | 63 | 69 | 1.0 | 1.0 | 0.00 | 0.24 | 0.00 | ||
| 20260502004211 | 63 | 70 | 2.0 | 3.0 | 0.00 | 0.24 | 0.00 | ||
| 20260502003211 | 63 | 65 | 2.0 | 1.0 | 0.00 | 0.24 | 0.00 | ||
| 20260502002709 | 64 | 66 | 2.0 | 2.0 | 0.00 | 0.24 | 0.00 |